Theta_e
322 316 310 312 300 295 292 297 302 306 305 307 310 308 302 299 301 302 303 309 314 320 324 328 337 341 341 342 343 344 344 344 344 344 344 344 345 344 344 343 342 341 340 340 339 336 338 342 342
319 316 312 307 295 289 291 296 301 305 307 308 308 307 302 296 301 300 300 308 311 318 319 323 333 335 336 337 338 339 340 340 340 341 341 342 342 342 343 343 343 343 343 343 342 339 337 340 341
312 315 306 304 295 290 290 300 303 305 308 307 304 303 299 297 299 300 302 307 311 314 317 321 328 329 330 330 330 332 332 332 334 336 336 335 335 335 336 339 341 341 342 342 343 343 340 341 342
304 310 308 300 298 301 296 300 307 307 308 308 305 298 296 299 300 301 304 307 307 311 313 319 323 324 324 325 325 325 325 324 324 323 323 325 326 326 327 329 330 333 335 338 339 341 341 341 341
306 306 300 298 299 303 303 305 308 306 307 308 305 297 294 298 301 302 303 305 303 305 308 311 318 319 320 320 320 320 319 319 319 319 319 319 319 319 319 319 321 322 324 326 329 333 335 337 339
301 305 297 296 301 306 302 305 307 306 305 305 303 296 294 299 299 300 301 299 301 302 305 308 315 316 316 317 317 317 317 317 316 316 315 315 315 315 315 316 318 318 319 320 321 321 324 329 333
299 299 296 298 300 303 302 303 303 303 302 303 305 297 293 295 298 299 297 296 299 300 301 303 307 312 314 313 313 313 313 312 312 313 313 314 314 314 314 313 314 316 317 318 318 318 319 320 321
303 300 296 298 299 301 303 301 302 301 299 299 302 295 291 295 298 297 295 295 296 298 299 299 302 305 303 304 313 312 311 310 310 311 314 315 313 315 313 313 312 314 315 315 316 317 317 317 317
307 297 295 297 300 303 299 299 296 294 295 295 297 295 296 298 296 294 292 293 295 297 297 298 298 299 301 301 304 310 312 312 314 311 312 308 304 304 306 311 314 313 313 314 315 315 315 316 315
300 295 298 298 296 294 298 298 296 295 293 292 292 295 296 295 293 292 292 292 293 294 296 297 297 298 299 302 300 301 304 303 303 303 302 303 302 304 307 306 312 311 312 312 313 313 314 310 304
298 295 297 294 294 294 297 296 296 295 292 294 293 293 294 293 292 292 292 292 293 294 295 297 296 296 297 298 298 299 299 299 301 300 301 302 302 301 301 300 300 301 306 302 304 303 303 303 302
294 298 295 296 293 293 293 292 294 294 295 295 295 295 294 293 293 292 292 293 293 294 295 296 297 296 297 297 297 297 298 297 298 299 301 299 299 299 299 299 299 299 300 300 300 301 301 301 302
294 296 293 292 291 290 291 291 292 293 296 294 293 295 294 294 293 293 294 293 294 294 295 295 295 295 297 296 296 296 296 297 297 298 300 299 298 298 298 298 298 298 299 300 299 299 300 300 301
293 293 291 291 291 290 289 290 290 293 295 295 293 291 292 293 294 292 292 293 294 296 295 295 295 296 296 295 295 296 296 296 296 297 299 300 299 298 298 297 298 298 299 299 299 299 299 299 300
292 289 291 290 290 289 287 290 287 291 291 293 293 290 291 293 294 294 294 293 295 295 296 295 296 296 295 295 295 296 296 297 296 296 299 299 300 298 297 297 297 297 298 298 298 298 299 298 299
287 286 285 290 288 287 287 288 293 289 290 289 288 288 289 290 294 294 294 294 294 295 295 296 299 296 295 294 295 295 295 295 295 296 298 300 300 299 297 296 296 297 298 298 297 297 296 296 297
287 282 285 287 288 286 285 285 289 290 288 287 286 287 288 289 290 292 293 295 295 295 295 295 295 294 295 294 295 294 295 295 296 296 297 299 299 300 296 296 296 297 297 296 296 296 295 295 295
282 282 284 284 285 285 282 283 287 289 286 287 286 286 287 289 291 291 293 295 295 294 294 294 294 293 295 295 294 294 294 295 296 295 297 298 298 298 296 296 296 296 295 295 295 294 294 294 294
283 281 281 283 285 284 283 283 286 288 286 287 289 287 287 290 292 292 293 293 293 293 293 295 293 294 294 292 292 293 293 294 294 296 298 298 298 298 296 295 295 295 294 293 294 293 291 291 291
282 280 280 283 285 283 282 282 287 289 289 290 290 289 290 289 288 292 292 292 293 293 294 294 295 294 294 294 294 293 292 293 294 296 297 298 297 297 297 295 294 294 293 292 292 292 290 290 290
281 280 281 281 284 284 281 280 284 289 289 290 291 291 291 291 288 290 291 292 292 292 292 294 295 295 294 295 294 293 294 293 294 295 294 296 297 297 296 295 294 293 292 291 291 290 289 288 289
279 283 283 282 281 276 281 275 282 288 289 289 289 289 290 290 289 291 291 291 291 293 292 294 294 294 294 295 293 292 292 291 292 293 294 294 296 295 296 295 293 292 291 290 289 291 289 288 287
280 284 282 281 278 277 277 275 280 285 287 289 289 288 289 289 290 289 291 292 293 292 293 293 293 293 294 294 293 292 291 292 292 292 293 293 294 294 294 294 292 291 290 290 289 289 288 289 288
283 281 281 280 278 272 277 278 277 284 287 287 288 289 289 288 289 289 289 290 291 292 292 291 292 292 293 293 293 292 292 292 291 291 291 291 291 291 292 293 291 290 290 289 289 288 288 288 288
280 278 274 272 270 273 276 276 280 286 288 288 288 288 288 288 288 288 289 289 291 292 292 292 292 292 292 292 292 292 292 291 291 290 290 289 289 289 290 290 289 289 289 289 289 288 288 288 287
277 278 275 270 274 277 277 276 283 288 288 288 288 289 288 288 288 288 288 289 290 292 292 292 292 291 292 292 292 292 292 291 291 290 290 289 289 289 290 289 289 289 289 289 289 288 288 288 288
277 275 278 274 271 272 276 279 286 288 287 287 288 287 287 288 288 288 289 289 289 292 293 293 292 292 292 292 291 291 291 291 290 290 290 289 289 290 289 289 288 288 288 288 288 288 287 287 287
279 280 274 273 266 267 276 277 280 284 286 286 286 286 287 287 288 288 289 289 290 292 292 291 292 293 292 291 291 291 291 291 290 289 289 289 289 289 288 288 288 288 288 288 288 287 287 286 287
275 274 276 277 277 273 272 277 283 286 287 286 287 287 286 287 287 288 288 289 289 289 290 292 291 291 291 291 291 291 290 290 290 289 289 289 289 288 288 288 288 288 287 288 287 286 285 284 286
276 277 277 273 273 275 276 277 286 286 287 287 288 289 287 287 287 287 288 288 288 289 289 290 291 291 292 291 291 290 290 289 289 288 288 288 288 288 288 288 288 287 287 287 285 283 283 285 285
Wind_Speed
11 11 3 4 4 5 4 7 2 5 3 2 2 8 8 5 1 4 4 7 9 11 9 7 10 11 11 12 12 11 9 7 6 6 7 8 6 6 7 7 6 6 6 7 7 7 7 8 5
6 7 4 2 4 1 7 4 5 2 5 6 6 4 2 2 4 7 5 5 9 10 8 5 9 11 10 10 11 11 9 10 10 8 7 8 12 11 11 9 6 6 7 8 8 8 8 5 5
6 4 3 3 3 6 6 4 7 4 6 4 4 6 4 4 4 8 5 8 11 9 8 6 10 11 11 11 11 11 10 11 10 9 10 9 10 9 9 10 11 10 9 7 9 10 8 6 6
3 5 4 2 9 10 4 5 7 8 2 2 5 5 4 2 7 8 8 9 11 8 7 8 10 11 11 10 10 10 10 10 9 8 9 9 10 11 10 10 11 10 11 12 12 13 11 10 8
2 2 2 4 9 8 4 7 8 5 7 5 4 4 3 3 8 9 7 8 11 8 7 6 10 10 10 9 9 9 9 9 9 10 10 10 10 10 11 11 12 12 11 11 11 12 11 12 12
3 2 1 6 11 11 3 8 10 8 7 6 6 8 5 8 9 7 7 8 8 9 7 6 9 9 10 9 9 9 9 10 10 11 10 9 9 10 11 10 11 12 12 12 12 13 13 13 13
4 1 6 6 9 10 6 4 7 7 9 6 9 7 2 4 7 8 8 8 8 8 8 6 6 7 10 9 9 8 8 8 8 9 8 7 6 8 11 9 11 12 11 11 12 12 13 14 16
4 3 4 6 9 13 8 4 2 4 4 1 2 8 6 8 10 8 7 8 8 7 7 7 6 6 6 5 7 6 6 5 4 4 8 7 8 8 8 6 6 9 9 10 11 11 11 14 15
1 1 5 6 8 11 3 5 2 3 6 2 2 5 3 16 10 8 5 4 4 4 7 6 6 6 6 6 5 5 2 3 0 5 6 5 3 3 5 6 9 10 12 12 12 13 14 13 10
4 4 7 1 2 2 2 3 8 5 3 2 4 5 10 11 9 9 8 8 7 7 6 7 6 5 4 4 5 4 4 2 2 2 3 2 3 4 5 6 10 11 12 12 14 15 14 10 5
4 5 2 1 2 4 4 4 5 8 4 8 10 11 10 7 8 9 8 8 10 9 6 7 7 6 5 3 2 1 2 1 1 1 2 3 3 4 4 3 3 4 5 3 5 5 3 5 4
3 6 1 3 4 4 3 8 3 7 7 2 6 18 14 11 12 11 10 9 8 8 9 8 8 7 6 3 2 3 3 1 1 1 1 2 2 3 3 3 4 4 3 5 4 3 5 6 7
4 5 1 1 3 3 4 6 6 6 9 4 6 12 14 13 11 9 10 9 9 10 9 9 9 7 6 5 3 2 2 2 3 1 1 3 2 2 2 3 3 4 3 3 4 4 5 6 7
2 4 4 2 2 3 2 5 1 7 9 10 8 12 12 14 15 9 9 10 11 11 10 9 9 8 7 5 4 3 2 3 1 1 2 2 2 1 2 3 4 4 3 3 4 4 4 5 6
3 5 6 6 5 4 2 9 13 11 5 10 12 10 11 14 13 16 14 10 12 9 10 10 9 8 8 7 5 4 3 3 1 1 0 1 2 1 2 2 4 4 3 5 4 4 4 4 5
1 1 4 1 7 2 3 11 4 3 11 12 9 9 10 12 15 12 12 11 10 10 10 9 9 9 8 7 5 3 3 2 2 2 1 1 2 1 2 2 4 4 4 4 4 4 4 5 6
2 4 5 4 8 3 6 9 6 7 8 9 9 9 11 10 10 11 13 14 14 13 11 10 9 10 9 7 4 4 3 2 2 1 1 2 1 2 3 3 4 5 4 4 4 3 3 6 7
6 4 5 7 5 3 4 18 16 14 7 10 10 10 11 13 18 12 13 14 14 12 11 10 8 9 8 5 4 2 1 2 1 2 3 3 0 3 3 2 4 4 3 4 4 4 3 4 7
3 3 5 4 3 4 9 14 19 13 9 14 16 13 14 17 14 14 13 13 11 10 12 13 11 9 6 3 3 1 3 2 1 2 3 1 2 2 2 1 3 3 3 4 5 2 3 5 5
3 3 6 2 3 3 7 15 20 18 15 18 18 17 17 10 11 16 15 15 15 15 14 13 13 9 7 5 3 3 3 2 2 2 2 3 3 1 1 1 2 3 3 5 4 3 3 3 3
4 5 4 3 3 5 6 11 9 7 13 14 13 13 17 16 13 16 17 18 13 15 14 14 12 11 8 7 4 3 3 1 0 1 1 2 2 1 2 2 1 2 1 3 3 3 4 4 3
4 3 2 1 1 5 2 9 7 10 8 6 10 12 12 15 9 14 18 16 16 14 12 12 12 10 9 9 6 6 5 4 3 3 3 2 1 2 2 3 2 1 2 3 3 3 3 2 7
6 2 3 2 2 3 3 3 11 5 9 8 9 8 8 9 10 11 16 18 16 13 13 12 10 8 8 9 8 6 5 4 3 2 2 2 1 1 2 2 2 2 2 3 4 4 4 3 5
6 4 4 3 2 3 8 8 6 6 5 2 1 6 8 8 7 6 8 9 11 11 11 9 11 9 10 9 8 9 8 6 4 3 3 2 0 2 3 3 3 3 4 4 4 5 5 7 8
1 5 1 4 2 8 1 4 8 11 6 4 6 4 6 6 7 7 8 9 12 13 10 9 10 10 10 10 8 9 8 7 7 5 4 3 1 1 3 2 3 3 5 5 5 5 7 8 8
6 5 7 9 5 4 3 9 9 8 4 2 5 7 6 6 6 7 9 8 11 12 10 10 11 10 11 9 9 7 7 5 4 5 4 3 2 2 2 3 4 5 5 5 5 6 7 8 7
6 6 2 5 2 4 6 8 11 7 6 6 9 8 9 8 8 8 8 8 9 12 15 16 14 11 11 11 8 7 7 7 6 6 5 3 3 2 1 3 5 6 6 6 6 7 8 8 8
3 1 2 3 3 5 6 6 8 5 8 7 7 10 9 8 8 8 8 9 9 9 9 8 10 14 10 9 8 7 8 7 6 6 6 5 3 2 2 4 5 6 6 6 7 7 8 9 9
4 3 2 2 5 6 2 8 8 9 8 10 11 8 10 10 9 8 8 8 8 5 8 11 9 10 9 10 9 9 7 7 6 5 5 5 4 3 4 4 5 6 6 6 6 7 9 11 12
2 7 6 6 6 4 3 11 4 4 5 6 6 7 7 7 9 9 9 9 8 9 8 11 10 11 11 10 10 8 7 7 6 6 6 6 5 3 4 5 5 5 5 6 6 8 8 13 14
Wind_Direction
324 309 269 36 48 65 248 251 172 141 110 135 24 80 129 69 98 190 226 115 111 105 86 59 70 81 79 71 70 69 70 62 54 50 42 32 6 301 270 256 263 273 290 303 307 312 320 333 265
316 315 33 83 103 31 272 239 185 175 141 99 64 84 53 105 112 138 109 139 110 106 90 69 83 82 77 73 75 74 68 59 47 45 45 51 49 30 22 28 357 289 280 290 295 301 304 310 312
294 188 61 130 179 198 219 188 134 131 107 99 85 62 98 125 83 138 161 139 107 104 99 89 94 91 90 87 82 78 75 69 67 53 48 47 50 45 32 29 23 12 355 328 310 292 287 285 267
330 4 344 140 246 255 219 226 141 134 119 115 117 102 56 7 139 158 160 129 110 114 105 97 95 96 93 89 84 80 74 70 65 60 55 50 44 41 35 31 30 22 8 4 354 348 340 302 285
21 57 258 233 243 263 230 172 148 136 150 163 124 167 116 50 115 123 144 128 117 120 115 104 106 104 102 96 89 82 75 68 57 49 43 41 41 36 27 22 20 11 3 359 353 344 327 318 325
348 130 237 234 250 258 220 171 149 151 168 168 116 123 193 153 133 158 138 120 123 127 131 120 116 113 106 100 94 85 75 66 57 49 46 47 43 41 29 26 18 8 2 356 348 340 334 331 325
158 130 225 242 265 284 198 163 155 164 143 186 151 132 161 180 165 147 141 118 123 126 133 142 139 130 119 110 96 85 77 74 65 50 42 27 24 31 29 31 9 5 1 355 348 340 334 331 325
158 150 241 229 247 270 193 132 177 129 156 253 127 175 199 202 166 132 131 129 135 145 143 153 161 151 133 134 130 119 110 85 65 62 25 37 33 38 17 15 352 357 355 349 349 344 339 334 324
160 237 227 231 234 247 183 142 43 193 114 56 64 125 194 136 135 127 129 132 147 149 158 151 154 157 164 165 159 157 164 168 73 63 33 34 15 16 14 359 354 5 352 347 345 349 340 340 348
153 193 223 268 358 321 254 152 155 139 125 168 83 49 117 131 144 155 168 169 170 172 172 166 163 160 159 147 146 182 200 155 157 125 79 40 12 1 13 3 355 357 346 352 350 342 342 340 331
212 219 258 356 12 334 274 172 182 139 208 207 184 162 156 152 163 170 186 183 182 186 178 173 166 162 148 155 134 135 108 148 55 87 76 41 23 7 5 359 350 343 346 345 338 335 324 321 315
246 250 237 331 11 1 341 303 194 179 208 218 190 175 162 168 179 184 191 197 188 178 179 175 169 165 172 146 161 162 143 158 164 279 161 85 26 7 347 348 341 342 330 327 332 332 323 316 311
208 308 5 134 359 308 325 270 248 251 230 216 109 156 176 178 184 190 194 196 181 173 179 175 171 170 174 159 174 162 193 164 208 241 235 113 70 355 346 331 331 323 324 323 330 321 309 301 295
336 297 287 232 238 255 263 267 68 249 233 231 200 177 190 187 188 185 195 195 174 168 171 179 174 175 166 159 174 196 192 196 151 240 207 120 118 50 354 331 326 323 331 329 328 319 307 304 298
323 316 290 231 206 224 138 276 233 219 185 215 206 209 189 200 189 194 195 188 178 177 170 178 173 173 162 171 185 194 212 161 155 236 151 110 105 55 343 326 322 315 323 328 329 315 308 308 307
180 222 286 35 131 201 152 264 264 202 194 220 219 207 207 198 203 197 191 182 178 166 175 176 170 171 166 174 179 179 188 169 186 191 183 103 114 42 9 353 325 322 331 328 333 323 329 319 318
207 244 233 274 188 132 182 274 273 355 197 229 223 215 213 215 208 202 193 184 178 175 173 177 169 169 171 177 163 164 206 194 209 200 152 136 92 52 53 357 322 331 333 340 331 341 327 323 318
193 209 253 240 194 168 224 264 269 273 281 253 230 229 214 211 212 202 188 186 176 178 174 171 169 168 167 158 141 153 223 249 202 176 150 160 95 67 54 346 324 332 339 332 334 336 342 328 325
107 215 244 257 198 209 231 259 269 262 242 246 236 223 220 216 208 199 188 181 175 175 173 175 167 176 152 140 137 165 195 191 196 174 204 187 110 92 33 317 326 330 342 327 324 326 334 320 328
209 248 263 260 180 204 281 267 268 260 240 229 225 223 223 210 191 196 189 182 182 182 178 173 176 169 173 148 161 150 155 208 182 196 248 163 141 75 275 296 304 333 342 337 331 336 321 280 26
216 201 236 249 301 232 317 282 259 270 240 243 227 218 216 212 196 195 189 191 175 179 176 175 175 172 170 162 130 101 74 20 331 227 185 185 137 224 249 254 273 326 337 313 310 314 332 315 311
224 183 178 252 21 247 180 284 287 277 264 226 231 217 209 207 193 188 189 187 185 185 171 169 171 171 169 163 157 161 175 182 202 172 175 199 180 261 241 250 247 246 276 290 274 287 274 262 290
217 136 135 137 201 350 243 266 270 253 263 243 234 227 224 201 185 180 187 185 186 167 173 173 169 165 161 171 169 169 182 197 187 169 200 217 288 274 290 292 306 328 305 278 282 289 281 250 275
144 99 59 51 83 320 218 192 252 224 240 310 354 211 213 199 182 167 169 151 163 161 167 168 164 172 166 171 174 176 189 195 185 202 223 244 226 312 322 343 2 327 308 294 288 285 273 273 267
162 102 338 346 6 227 307 175 259 272 255 229 211 183 175 164 155 162 144 156 163 169 171 172 167 174 172 175 179 183 189 195 198 199 204 193 191 285 305 329 314 296 283 283 284 280 277 275 271
188 178 167 203 200 247 20 233 253 242 263 212 173 163 153 166 175 176 172 163 167 173 169 171 174 174 178 178 187 183 185 189 194 193 191 181 178 221 250 290 302 292 286 281 276 273 274 277 274
191 205 250 100 53 53 224 274 295 225 193 167 168 162 179 182 185 183 177 174 166 172 185 184 179 183 183 186 174 180 181 183 193 195 181 176 180 194 231 296 288 284 280 282 283 281 280 280 282
187 208 107 352 156 249 271 260 235 231 215 216 220 207 200 182 180 183 186 188 188 187 181 176 182 187 185 175 176 178 184 186 191 183 189 183 186 191 254 273 278 279 280 283 282 285 287 290 292
161 211 187 138 169 183 262 258 227 228 222 205 226 216 201 191 189 192 193 197 196 172 179 192 186 184 181 177 170 171 181 182 186 189 188 185 172 199 244 263 271 277 287 291 282 286 298 304 302
233 202 169 137 234 234 170 258 256 222 194 191 228 220 202 183 192 201 194 188 189 200 193 197 194 190 192 180 169 173 163 176 185 192 191 180 185 207 238 265 272 281 290 290 289 300 304 305 305